Location: Boda
(47.1872°N, 9.5454°E)
Time: 18:27:35
(UTC+00:00)

NOSS 2-1 (C) - Pass Details

Date: 14 May 2021
Orbit: 430 x 1771 km, 63.3° (Epoch: 26 May)

Event Time Altitude Azimuth Distance (km) Brightness Sun altitude
Rises 00:06:11 0° 316° (NW) 2,977 7.5 -23.3°
Reaches altitude 10° 00:08:13 10° 311° (NW) 2,206 6.7 -23.2°
Maximum altitude 00:13:09 55° 235° (SW) 1,068 4.4 -23.0°
Enters shadow 00:14:11 49° 199° (SSW) 1,192 4.5 -23.0°
